Saint Bonnet de Bellac- Haute Vienne - France
Donnes mto: jeudi, 25/10/2012
Date Horaire Temp. E. Hum. E. P.atmo. Pluie Vent Direction Direction Ensoleilleme Solaire P. de rose Temp au vent Rafales
25/10/2012 00:00 13,6 C 93 % 1014,6 hPa 0,0 mm 0,0 km/h (0 Bft) E 90 0 min 0 W/m 12,5 C 13,6 C 0,0 km/h (0 Bft)
25/10/2012 00:10 13,6 C 93 % 1014,7 hPa 0,0 mm 0,0 km/h (0 Bft) E 90 0 min 0 W/m 12,5 C 13,6 C 0,0 km/h (0 Bft)
25/10/2012 00:20 13,6 C 93 % 1014,8 hPa 0,0 mm 0,0 km/h (0 Bft) E 90 0 min 0 W/m 12,5 C 13,6 C 0,0 km/h (0 Bft)
25/10/2012 00:30 13,6 C 93 % 1014,8 hPa 0,0 mm 0,0 km/h (0 Bft) E-SE 112 0 min 0 W/m 12,5 C 13,6 C 0,0 km/h (0 Bft)
25/10/2012 00:40 13,7 C 93 % 1014,7 hPa 0,0 mm 0,0 km/h (0 Bft) S 180 0 min 0 W/m 12,6 C 13,7 C 0,0 km/h (0 Bft)
25/10/2012 00:50 13,8 C 93 % 1014,7 hPa 0,0 mm 0,0 km/h (0 Bft) S 180 0 min 0 W/m 12,7 C 13,8 C 0,0 km/h (0 Bft)
25/10/2012 01:00 13,8 C 93 % 1014,6 hPa 0,0 mm 0,0 km/h (0 Bft) S 180 0 min 0 W/m 12,7 C 13,8 C 1,4 km/h (1 Bft)
25/10/2012 01:10 13,9 C 93 % 1014,7 hPa 0,0 mm 0,0 km/h (0 Bft) S 180 0 min 0 W/m 12,8 C 13,9 C 0,0 km/h (0 Bft)
25/10/2012 01:20 14,0 C 93 % 1014,8 hPa 0,0 mm 0,0 km/h (0 Bft) S 180 0 min 0 W/m 12,9 C 14,0 C 0,0 km/h (0 Bft)
25/10/2012 01:30 14,1 C 93 % 1014,9 hPa 0,0 mm 0,0 km/h (0 Bft) S 180 0 min 0 W/m 13,0 C 14,1 C 0,0 km/h (0 Bft)
25/10/2012 01:40 14,2 C 93 % 1014,8 hPa 0,0 mm 0,0 km/h (0 Bft) S 180 0 min 0 W/m 13,1 C 14,2 C 0,0 km/h (0 Bft)
25/10/2012 01:50 14,3 C 93 % 1014,7 hPa 0,0 mm 0,0 km/h (0 Bft) S 180 0 min 0 W/m 13,2 C 14,3 C 0,0 km/h (0 Bft)
25/10/2012 02:00 14,4 C 92 % 1014,7 hPa 0,0 mm 0,0 km/h (0 Bft) S 180 0 min 0 W/m 13,1 C 14,4 C 0,0 km/h (0 Bft)
25/10/2012 02:10 14,6 C 92 % 1014,7 hPa 0,0 mm 0,0 km/h (0 Bft) S 180 0 min 0 W/m 13,3 C 14,6 C 0,0 km/h (0 Bft)
25/10/2012 02:20 14,8 C 92 % 1014,7 hPa 0,0 mm 0,0 km/h (0 Bft) S 180 0 min 0 W/m 13,5 C 14,8 C 0,0 km/h (0 Bft)
25/10/2012 02:30 15,1 C 91 % 1014,7 hPa 0,0 mm 0,0 km/h (0 Bft) S 180 0 min 0 W/m 13,6 C 15,1 C 0,0 km/h (0 Bft)
25/10/2012 02:40 15,3 C 91 % 1014,8 hPa 0,0 mm 0,0 km/h (0 Bft) S 180 0 min 0 W/m 13,8 C 15,3 C 0,0 km/h (0 Bft)
25/10/2012 02:50 15,6 C 91 % 1014,9 hPa 0,0 mm 1,4 km/h (1 Bft) S 180 0 min 0 W/m 14,1 C 15,6 C 3,6 km/h (1 Bft)
25/10/2012 03:00 16,2 C 88 % 1014,9 hPa 0,0 mm 0,0 km/h (0 Bft) S 180 0 min 0 W/m 14,2 C 16,2 C 0,0 km/h (0 Bft)
25/10/2012 03:10 16,3 C 87 % 1014,8 hPa 0,0 mm 0,4 km/h (0 Bft) S-SO 202 0 min 0 W/m 14,1 C 16,3 C 4,3 km/h (1 Bft)
25/10/2012 03:20 16,5 C 86 % 1014,8 hPa 0,0 mm 0,0 km/h (0 Bft) S-SO 202 0 min 0 W/m 14,1 C 16,5 C 0,0 km/h (0 Bft)
25/10/2012 03:30 16,4 C 86 % 1014,8 hPa 0,0 mm 0,0 km/h (0 Bft) S-SO 202 0 min 0 W/m 14,1 C 16,4 C 0,0 km/h (0 Bft)
25/10/2012 03:40 16,3 C 85 % 1014,8 hPa 0,0 mm 0,0 km/h (0 Bft) S-SO 202 0 min 0 W/m 13,8 C 16,3 C 0,0 km/h (0 Bft)
25/10/2012 03:50 16,2 C 86 % 1014,8 hPa 0,0 mm 0,0 km/h (0 Bft) E 90 0 min 0 W/m 13,9 C 16,2 C 0,0 km/h (0 Bft)
25/10/2012 04:00 16,1 C 87 % 1014,6 hPa 0,0 mm 1,4 km/h (1 Bft) E-SE 112 0 min 0 W/m 13,9 C 16,1 C 2,9 km/h (1 Bft)
25/10/2012 04:10 16,2 C 87 % 1014,4 hPa 0,0 mm 0,0 km/h (0 Bft) E-SE 112 0 min 0 W/m 14,0 C 16,2 C 0,0 km/h (0 Bft)
25/10/2012 04:20 16,4 C 87 % 1014,3 hPa 0,0 mm 0,0 km/h (0 Bft) E 90 0 min 0 W/m 14,2 C 16,4 C 3,2 km/h (1 Bft)
25/10/2012 04:30 16,6 C 87 % 1014,0 hPa 0,0 mm 2,5 km/h (1 Bft) E 90 0 min 0 W/m 14,4 C 16,6 C 4,3 km/h (1 Bft)
25/10/2012 04:40 16,8 C 86 % 1014,0 hPa 0,0 mm 0,0 km/h (0 Bft) E 90 0 min 0 W/m 14,4 C 16,8 C 0,0 km/h (0 Bft)
25/10/2012 04:50 16,9 C 86 % 1013,9 hPa 0,0 mm 0,0 km/h (0 Bft) E 90 0 min 0 W/m 14,5 C 16,9 C 3,6 km/h (1 Bft)
25/10/2012 05:00 17,1 C 86 % 1013,9 hPa 0,0 mm 1,1 km/h (1 Bft) E-NE 67 0 min 0 W/m 14,7 C 17,1 C 1,1 km/h (1 Bft)
25/10/2012 05:10 17,3 C 85 % 1013,9 hPa 0,0 mm 2,2 km/h (1 Bft) E-SE 112 0 min 0 W/m 14,8 C 17,3 C 4,3 km/h (1 Bft)
25/10/2012 05:20 17,5 C 84 % 1013,8 hPa 0,0 mm 2,2 km/h (1 Bft) E 90 0 min 0 W/m 14,8 C 17,5 C 4,0 km/h (1 Bft)
25/10/2012 05:30 18,0 C 83 % 1013,9 hPa 0,0 mm 1,4 km/h (1 Bft) NE 45 0 min 0 W/m 15,1 C 18,0 C 4,3 km/h (1 Bft)
25/10/2012 05:40 18,4 C 82 % 1014,0 hPa 0,0 mm 0,0 km/h (0 Bft) SE 135 0 min 0 W/m 15,3 C 18,4 C 0,0 km/h (0 Bft)
25/10/2012 05:50 19,0 C 82 % 1013,9 hPa 0,0 mm 1,1 km/h (1 Bft) SE 135 0 min 0 W/m 15,9 C 19,0 C 1,1 km/h (1 Bft)
25/10/2012 06:00 19,6 C 80 % 1013,7 hPa 0,0 mm 0,4 km/h (0 Bft) E-NE 67 0 min 0 W/m 16,1 C 19,6 C 0,4 km/h (0 Bft)
25/10/2012 06:10 19,9 C 79 % 1013,5 hPa 0,0 mm 0,4 km/h (0 Bft) N 360 0 min 0 W/m 16,1 C 19,9 C 0,4 km/h (0 Bft)
25/10/2012 06:20 20,2 C 77 % 1013,3 hPa 0,0 mm 0,0 km/h (0 Bft) N-NE 22 0 min 0 W/m 16,0 C 20,2 C 0,0 km/h (0 Bft)
25/10/2012 06:30 20,3 C 78 % 1013,1 hPa 0,0 mm 0,0 km/h (0 Bft) E-NE 67 0 min 0 W/m 16,3 C 20,3 C 0,0 km/h (0 Bft)
25/10/2012 06:40 20,4 C 77 % 1013,0 hPa 0,0 mm 0,0 km/h (0 Bft) E-NE 67 0 min 0 W/m 16,2 C 20,4 C 0,0 km/h (0 Bft)
25/10/2012 06:50 20,3 C 76 % 1012,9 hPa 0,0 mm 0,0 km/h (0 Bft) E-NE 67 0 min 0 W/m 15,9 C 20,3 C 0,0 km/h (0 Bft)
25/10/2012 07:00 20,2 C 77 % 1012,7 hPa 0,0 mm 0,0 km/h (0 Bft) E-NE 67 0 min 0 W/m 16,0 C 20,2 C 0,0 km/h (0 Bft)
25/10/2012 07:10 20,1 C 77 % 1012,6 hPa 0,0 mm 0,0 km/h (0 Bft) E-NE 67 0 min 0 W/m 15,9 C 20,1 C 0,0 km/h (0 Bft)
25/10/2012 07:20 20,2 C 78 % 1012,6 hPa 0,0 mm 0,0 km/h (0 Bft) NE 45 0 min 0 W/m 16,2 C 20,2 C 0,0 km/h (0 Bft)
25/10/2012 07:30 20,2 C 77 % 1012,4 hPa 0,0 mm 0,0 km/h (0 Bft) NE 45 0 min 0 W/m 16,0 C 20,2 C 0,0 km/h (0 Bft)
25/10/2012 07:40 20,3 C 78 % 1012,3 hPa 0,0 mm 0,0 km/h (0 Bft) NE 45 0 min 0 W/m 16,3 C 20,3 C 0,0 km/h (0 Bft)
25/10/2012 07:50 20,2 C 78 % 1012,2 hPa 0,0 mm 0,0 km/h (0 Bft) NE 45 0 min 0 W/m 16,2 C 20,2 C 0,0 km/h (0 Bft)
25/10/2012 08:00 20,2 C 78 % 1012,2 hPa 0,0 mm 0,0 km/h (0 Bft) N 360 0 min 0 W/m 16,2 C 20,2 C 0,0 km/h (0 Bft)
25/10/2012 08:10 20,1 C 77 % 1012,1 hPa 0,0 mm 0,0 km/h (0 Bft) NE 45 0 min 0 W/m 15,9 C 20,1 C 0,0 km/h (0 Bft)
25/10/2012 08:20 20,1 C 77 % 1012,0 hPa 0,0 mm 0,0 km/h (0 Bft) NE 45 0 min 0 W/m 15,9 C 20,1 C 0,0 km/h (0 Bft)
25/10/2012 08:30 20,0 C 78 % 1011,9 hPa 0,0 mm 0,0 km/h (0 Bft) NE 45 0 min 0 W/m 16,0 C 20,0 C 0,0 km/h (0 Bft)
25/10/2012 08:40 19,9 C 78 % 1011,9 hPa 0,0 mm 0,0 km/h (0 Bft) NE 45 0 min 0 W/m 15,9 C 19,9 C 0,0 km/h (0 Bft)
25/10/2012 08:50 19,9 C 78 % 1011,9 hPa 0,0 mm 0,0 km/h (0 Bft) NE 45 0 min 0 W/m 15,9 C 19,9 C 0,0 km/h (0 Bft)
25/10/2012 09:00 19,8 C 78 % 1011,6 hPa 0,0 mm 0,0 km/h (0 Bft) NE 45 0 min 0 W/m 15,8 C 19,8 C 0,0 km/h (0 Bft)
25/10/2012 09:10 19,6 C 79 % 1011,7 hPa 0,0 mm 0,0 km/h (0 Bft) NE 45 0 min 0 W/m 15,9 C 19,6 C 0,0 km/h (0 Bft)
25/10/2012 09:20 19,3 C 79 % 1011,6 hPa 0,0 mm 0,0 km/h (0 Bft) NE 45 0 min 0 W/m 15,6 C 19,3 C 0,0 km/h (0 Bft)
25/10/2012 09:30 18,8 C 80 % 1011,7 hPa 0,0 mm 0,0 km/h (0 Bft) NE 45 0 min 0 W/m 15,3 C 18,8 C 0,0 km/h (0 Bft)
25/10/2012 09:40 18,3 C 80 % 1011,7 hPa 0,0 mm 0,0 km/h (0 Bft) NE 45 0 min 0 W/m 14,8 C 18,3 C 0,0 km/h (0 Bft)
25/10/2012 09:50 17,7 C 81 % 1011,8 hPa 0,0 mm 0,0 km/h (0 Bft) NE 45 0 min 0 W/m 14,4 C 17,7 C 0,0 km/h (0 Bft)
25/10/2012 10:00 17,2 C 82 % 1011,7 hPa 0,0 mm 0,0 km/h (0 Bft) NE 45 0 min 0 W/m 14,1 C 17,2 C 0,0 km/h (0 Bft)
25/10/2012 10:10 16,6 C 83 % 1011,7 hPa 0,0 mm 0,0 km/h (0 Bft) NE 45 0 min 0 W/m 13,7 C 16,6 C 0,0 km/h (0 Bft)
25/10/2012 10:20 16,2 C 83 % 1011,6 hPa 0,0 mm 0,0 km/h (0 Bft) NE 45 0 min 0 W/m 13,3 C 16,2 C 0,0 km/h (0 Bft)
25/10/2012 10:30 15,6 C 84 % 1011,5 hPa 0,0 mm 0,0 km/h (0 Bft) NE 45 0 min 0 W/m 12,9 C 15,6 C 0,0 km/h (0 Bft)
25/10/2012 10:40 15,3 C 85 % 1011,6 hPa 0,0 mm 0,0 km/h (0 Bft) NE 45 0 min 0 W/m 12,8 C 15,3 C 0,0 km/h (0 Bft)
25/10/2012 10:50 14,9 C 85 % 1011,7 hPa 0,0 mm 0,0 km/h (0 Bft) NE 45 0 min 0 W/m 12,4 C 14,9 C 0,0 km/h (0 Bft)
25/10/2012 11:00 14,5 C 86 % 1011,7 hPa 0,0 mm 0,0 km/h (0 Bft) NE 45 0 min 0 W/m 12,2 C 14,5 C 0,0 km/h (0 Bft)
25/10/2012 11:10 14,1 C 86 % 1011,6 hPa 0,0 mm 0,0 km/h (0 Bft) NE 45 0 min 0 W/m 11,8 C 14,1 C 0,0 km/h (0 Bft)
25/10/2012 11:20 13,8 C 87 % 1011,7 hPa 0,0 mm 0,0 km/h (0 Bft) NE 45 0 min 0 W/m 11,7 C 13,8 C 0,0 km/h (0 Bft)
25/10/2012 11:30 13,6 C 87 % 1011,7 hPa 0,0 mm 0,0 km/h (0 Bft) NE 45 0 min 0 W/m 11,5 C 13,6 C 0,0 km/h (0 Bft)
25/10/2012 11:40 13,4 C 88 % 1011,8 hPa 0,0 mm 0,0 km/h (0 Bft) NE 45 0 min 0 W/m 11,5 C 13,4 C 0,0 km/h (0 Bft)
25/10/2012 11:50 13,2 C 88 % 1011,8 hPa 0,0 mm 0,0 km/h (0 Bft) NE 45 0 min 0 W/m 11,3 C 13,2 C 0,0 km/h (0 Bft)
25/10/2012 12:00 13,0 C 88 % 1011,6 hPa 0,0 mm 0,0 km/h (0 Bft) NE 45 0 min 0 W/m 11,1 C 13,0 C 0,0 km/h (0 Bft)
25/10/2012 12:10 12,8 C 88 % 1011,7 hPa 0,0 mm 0,0 km/h (0 Bft) NE 45 0 min 0 W/m 10,9 C 12,8 C 0,0 km/h (0 Bft)
25/10/2012 12:20 12,7 C 89 % 1011,7 hPa 0,0 mm 0,0 km/h (0 Bft) NE 45 0 min 0 W/m 10,9 C 12,7 C 0,0 km/h (0 Bft)
25/10/2012 12:30 12,5 C 89 % 1011,6 hPa 0,0 mm 0,0 km/h (0 Bft) NE 45 0 min 0 W/m 10,7 C 12,5 C 0,0 km/h (0 Bft)
25/10/2012 12:40 12,5 C 90 % 1011,6 hPa 0,0 mm 0,0 km/h (0 Bft) NE 45 0 min 0 W/m 10,9 C 12,5 C 0,0 km/h (0 Bft)
25/10/2012 12:50 12,5 C 90 % 1011,5 hPa 0,0 mm 0,0 km/h (0 Bft) NE 45 0 min 0 W/m 10,9 C 12,5 C 0,0 km/h (0 Bft)
25/10/2012 13:00 12,5 C 90 % 1011,5 hPa 0,0 mm 0,0 km/h (0 Bft) NE 45 0 min 0 W/m 10,9 C 12,5 C 0,0 km/h (0 Bft)
25/10/2012 13:10 12,5 C 90 % 1011,6 hPa 0,0 mm 0,0 km/h (0 Bft) NE 45 0 min 0 W/m 10,9 C 12,5 C 0,0 km/h (0 Bft)
25/10/2012 13:20 12,3 C 90 % 1011,6 hPa 0,0 mm 0,0 km/h (0 Bft) NE 45 0 min 0 W/m 10,7 C 12,3 C 0,0 km/h (0 Bft)
25/10/2012 13:30 12,1 C 90 % 1011,7 hPa 0,0 mm 0,0 km/h (0 Bft) NE 45 0 min 0 W/m 10,5 C 12,1 C 0,0 km/h (0 Bft)
25/10/2012 13:40 12,1 C 91 % 1011,6 hPa 0,0 mm 0,0 km/h (0 Bft) NE 45 0 min 0 W/m 10,7 C 12,1 C 0,0 km/h (0 Bft)
25/10/2012 13:50 11,9 C 91 % 1011,6 hPa 0,0 mm 0,0 km/h (0 Bft) NE 45 0 min 0 W/m 10,5 C 11,9 C 0,0 km/h (0 Bft)
25/10/2012 14:00 11,9 C 91 % 1011,6 hPa 0,0 mm 0,0 km/h (0 Bft) NE 45 0 min 0 W/m 10,5 C 11,9 C 0,0 km/h (0 Bft)
25/10/2012 14:10 11,8 C 91 % 1011,6 hPa 0,0 mm 0,0 km/h (0 Bft) NE 45 0 min 0 W/m 10,4 C 11,8 C 0,0 km/h (0 Bft)
25/10/2012 14:20 11,8 C 91 % 1011,5 hPa 0,0 mm 0,0 km/h (0 Bft) NE 45 0 min 0 W/m 10,4 C 11,8 C 0,0 km/h (0 Bft)
25/10/2012 14:30 11,8 C 91 % 1011,3 hPa 0,0 mm 0,0 km/h (0 Bft) NE 45 0 min 0 W/m 10,4 C 11,8 C 0,0 km/h (0 Bft)
25/10/2012 14:40 11,6 C 91 % 1011,3 hPa 0,0 mm 0,0 km/h (0 Bft) NE 45 0 min 0 W/m 10,2 C 11,6 C 0,0 km/h (0 Bft)
25/10/2012 14:50 11,4 C 91 % 1011,2 hPa 0,0 mm 0,0 km/h (0 Bft) NE 45 0 min 0 W/m 10,0 C 11,4 C 0,0 km/h (0 Bft)
25/10/2012 15:00 11,4 C 91 % 1011,2 hPa 0,0 mm 0,0 km/h (0 Bft) NE 45 0 min 0 W/m 10,0 C 11,4 C 0,0 km/h (0 Bft)
25/10/2012 15:10 11,4 C 92 % 1011,0 hPa 0,0 mm 0,0 km/h (0 Bft) NE 45 0 min 0 W/m 10,1 C 11,4 C 0,0 km/h (0 Bft)
25/10/2012 15:20 11,8 C 92 % 1010,9 hPa 0,0 mm 0,0 km/h (0 Bft) E-SE 112 0 min 0 W/m 10,5 C 11,8 C 0,0 km/h (0 Bft)
25/10/2012 15:30 11,9 C 92 % 1010,9 hPa 0,0 mm 1,4 km/h (1 Bft) E-SE 112 0 min 0 W/m 10,6 C 11,9 C 4,0 km/h (1 Bft)
25/10/2012 15:40 12,0 C 92 % 1010,9 hPa 0,0 mm 0,0 km/h (0 Bft) E-SE 112 0 min 0 W/m 10,7 C 12,0 C 0,0 km/h (0 Bft)
25/10/2012 15:50 11,9 C 92 % 1011,0 hPa 0,0 mm 0,0 km/h (0 Bft) E-SE 112 0 min 0 W/m 10,6 C 11,9 C 0,0 km/h (0 Bft)
25/10/2012 16:00 11,8 C 92 % 1011,0 hPa 0,0 mm 1,1 km/h (1 Bft) E 90 0 min 0 W/m 10,5 C 11,8 C 4,3 km/h (1 Bft)
25/10/2012 16:10 11,6 C 92 % 1011,1 hPa 0,0 mm 1,1 km/h (1 Bft) E-SE 112 0 min 0 W/m 10,3 C 11,6 C 4,0 km/h (1 Bft)
25/10/2012 16:20 11,8 C 92 % 1011,0 hPa 0,0 mm 0,0 km/h (0 Bft) E-SE 112 0 min 0 W/m 10,5 C 11,8 C 0,0 km/h (0 Bft)
25/10/2012 16:30 11,7 C 92 % 1010,9 hPa 0,0 mm 0,0 km/h (0 Bft) SE 135 0 min 0 W/m 10,4 C 11,7 C 0,0 km/h (0 Bft)
25/10/2012 16:40 11,6 C 92 % 1010,8 hPa 0,0 mm 0,0 km/h (0 Bft) SE 135 0 min 0 W/m 10,3 C 11,6 C 0,0 km/h (0 Bft)
25/10/2012 16:50 11,4 C 92 % 1010,8 hPa 0,0 mm 0,0 km/h (0 Bft) SE 135 0 min 0 W/m 10,1 C 11,4 C 0,0 km/h (0 Bft)
25/10/2012 17:00 11,4 C 93 % 1010,7 hPa 0,0 mm 2,2 km/h (1 Bft) E-NE 67 0 min 0 W/m 10,3 C 11,4 C 4,0 km/h (1 Bft)
25/10/2012 17:10 11,2 C 93 % 1010,7 hPa 0,0 mm 1,1 km/h (1 Bft) E-NE 67 0 min 0 W/m 10,1 C 11,2 C 1,1 km/h (1 Bft)
25/10/2012 17:20 11,1 C 93 % 1010,6 hPa 0,0 mm 0,4 km/h (0 Bft) E-SE 112 0 min 0 W/m 10,0 C 11,1 C 2,9 km/h (1 Bft)
25/10/2012 17:30 11,3 C 93 % 1010,7 hPa 0,0 mm 1,1 km/h (1 Bft) E-SE 112 0 min 0 W/m 10,2 C 11,3 C 3,6 km/h (1 Bft)
25/10/2012 17:40 11,5 C 93 % 1010,7 hPa 0,0 mm 0,7 km/h (0 Bft) E 90 0 min 0 W/m 10,4 C 11,5 C 0,7 km/h (0 Bft)
25/10/2012 17:50 11,6 C 93 % 1010,7 hPa 0,0 mm 2,9 km/h (1 Bft) E-SE 112 0 min 0 W/m 10,5 C 11,6 C 4,3 km/h (1 Bft)
25/10/2012 18:00 11,5 C 93 % 1010,7 hPa 0,0 mm 0,0 km/h (0 Bft) SE 135 0 min 0 W/m 10,4 C 11,5 C 0,0 km/h (0 Bft)
25/10/2012 18:10 11,4 C 93 % 1010,7 hPa 0,0 mm 0,4 km/h (0 Bft) S-SE 157 0 min 0 W/m 10,3 C 11,4 C 3,2 km/h (1 Bft)
25/10/2012 18:20 11,4 C 93 % 1010,6 hPa 0,0 mm 1,1 km/h (1 Bft) E-SE 112 0 min 0 W/m 10,3 C 11,4 C 4,7 km/h (1 Bft)
25/10/2012 18:30 11,5 C 93 % 1010,5 hPa 0,0 mm 0,0 km/h (0 Bft) E-SE 112 0 min 0 W/m 10,4 C 11,5 C 0,0 km/h (0 Bft)
25/10/2012 18:40 11,4 C 93 % 1010,6 hPa 0,0 mm 0,4 km/h (0 Bft) E-SE 112 0 min 0 W/m 10,3 C 11,4 C 3,6 km/h (1 Bft)
25/10/2012 18:50 11,2 C 93 % 1010,5 hPa 0,0 mm 0,7 km/h (0 Bft) E-NE 67 0 min 0 W/m 10,1 C 11,2 C 3,2 km/h (1 Bft)
25/10/2012 19:00 11,1 C 93 % 1010,5 hPa 0,0 mm 0,0 km/h (0 Bft) E-NE 67 0 min 0 W/m 10,0 C 11,1 C 0,0 km/h (0 Bft)
25/10/2012 19:10 10,9 C 93 % 1010,5 hPa 0,0 mm 0,0 km/h (0 Bft) E-NE 67 0 min 0 W/m 9,8 C 10,9 C 0,0 km/h (0 Bft)
25/10/2012 19:20 11,1 C 94 % 1010,4 hPa 0,0 mm 1,8 km/h (1 Bft) E-SE 112 0 min 0 W/m 10,2 C 11,1 C 3,2 km/h (1 Bft)
25/10/2012 19:30 11,1 C 93 % 1010,5 hPa 0,0 mm 0,0 km/h (0 Bft) E-SE 112 0 min 0 W/m 10,0 C 11,1 C 0,0 km/h (0 Bft)
25/10/2012 19:40 10,9 C 93 % 1010,4 hPa 0,0 mm 0,0 km/h (0 Bft) E-SE 112 0 min 0 W/m 9,8 C 10,9 C 0,0 km/h (0 Bft)
25/10/2012 19:50 10,8 C 93 % 1010,4 hPa 0,0 mm 0,0 km/h (0 Bft) E-SE 112 0 min 0 W/m 9,7 C 10,8 C 0,0 km/h (0 Bft)
25/10/2012 20:00 10,6 C 93 % 1010,3 hPa 0,0 mm 0,0 km/h (0 Bft) S-SO 202 0 min 0 W/m 9,5 C 10,6 C 0,0 km/h (0 Bft)
25/10/2012 20:10 10,3 C 93 % 1010,4 hPa 0,1 mm 0,0 km/h (0 Bft) S-SO 202 0 min 0 W/m 9,2 C 10,3 C 0,0 km/h (0 Bft)
25/10/2012 20:20 10,1 C 93 % 1010,3 hPa 0,0 mm 0,0 km/h (0 Bft) S-SO 202 0 min 0 W/m 9,0 C 10,1 C 0,0 km/h (0 Bft)
25/10/2012 20:30 9,9 C 94 % 1010,4 hPa 0,0 mm 0,0 km/h (0 Bft) S-SO 202 0 min 0 W/m 9,0 C 9,9 C 0,0 km/h (0 Bft)
25/10/2012 20:40 9,8 C 94 % 1010,6 hPa 0,0 mm 0,0 km/h (0 Bft) S-SO 202 0 min 0 W/m 8,9 C 9,8 C 0,0 km/h (0 Bft)
25/10/2012 20:50 9,7 C 94 % 1010,6 hPa 0,0 mm 0,0 km/h (0 Bft) S-SO 202 0 min 0 W/m 8,8 C 9,7 C 0,0 km/h (0 Bft)
25/10/2012 21:00 9,8 C 94 % 1010,5 hPa 0,0 mm 0,0 km/h (0 Bft) S-SO 202 0 min 0 W/m 8,9 C 9,8 C 0,0 km/h (0 Bft)
25/10/2012 21:10 9,8 C 94 % 1010,5 hPa 0,0 mm 0,0 km/h (0 Bft) S-SO 202 0 min 0 W/m 8,9 C 9,8 C 0,0 km/h (0 Bft)
25/10/2012 21:20 9,8 C 94 % 1010,4 hPa 0,0 mm 0,0 km/h (0 Bft) S-SO 202 0 min 0 W/m 8,9 C 9,8 C 0,0 km/h (0 Bft)
25/10/2012 21:30 10,0 C 94 % 1010,4 hPa 0,0 mm 0,0 km/h (0 Bft) S 180 0 min 0 W/m 9,1 C 10,0 C 0,0 km/h (0 Bft)
25/10/2012 21:40 10,4 C 95 % 1010,3 hPa 0,0 mm 0,0 km/h (0 Bft) E-SE 112 0 min 0 W/m 9,6 C 10,4 C 0,0 km/h (0 Bft)
25/10/2012 21:50 10,8 C 94 % 1010,2 hPa 0,0 mm 0,0 km/h (0 Bft) E-SE 112 0 min 0 W/m 9,9 C 10,8 C 0,0 km/h (0 Bft)
25/10/2012 22:00 10,6 C 94 % 1010,1 hPa 0,0 mm 0,4 km/h (0 Bft) SE 135 0 min 0 W/m 9,7 C 10,6 C 0,4 km/h (0 Bft)
25/10/2012 22:10 10,6 C 94 % 1010,1 hPa 0,0 mm 0,0 km/h (0 Bft) SE 135 0 min 0 W/m 9,7 C 10,6 C 0,0 km/h (0 Bft)
25/10/2012 22:20 10,5 C 94 % 1010,1 hPa 0,0 mm 0,0 km/h (0 Bft) E-SE 112 0 min 0 W/m 9,6 C 10,5 C 0,0 km/h (0 Bft)
25/10/2012 22:30 10,5 C 94 % 1010,1 hPa 0,0 mm 0,0 km/h (0 Bft) E-SE 112 0 min 0 W/m 9,6 C 10,5 C 0,0 km/h (0 Bft)
25/10/2012 22:40 10,5 C 94 % 1009,9 hPa 0,0 mm 1,1 km/h (1 Bft) E-SE 112 0 min 0 W/m 9,6 C 10,5 C 4,0 km/h (1 Bft)
25/10/2012 22:50 10,8 C 94 % 1009,9 hPa 0,0 mm 0,4 km/h (0 Bft) E-SE 112 0 min 0 W/m 9,9 C 10,8 C 0,4 km/h (0 Bft)
25/10/2012 23:00 10,8 C 94 % 1010,0 hPa 0,0 mm 2,9 km/h (1 Bft) E-SE 112 0 min 0 W/m 9,9 C 10,8 C 4,3 km/h (1 Bft)
25/10/2012 23:10 10,9 C 94 % 1009,9 hPa 0,0 mm 0,0 km/h (0 Bft) E-SE 112 0 min 0 W/m 10,0 C 10,9 C 0,0 km/h (0 Bft)
25/10/2012 23:20 10,9 C 94 % 1010,0 hPa 0,0 mm 0,0 km/h (0 Bft) E-SE 112 0 min 0 W/m 10,0 C 10,9 C 0,0 km/h (0 Bft)
25/10/2012 23:30 10,8 C 94 % 1010,0 hPa 0,0 mm 0,0 km/h (0 Bft) E-SE 112 0 min 0 W/m 9,9 C 10,8 C 0,0 km/h (0 Bft)
25/10/2012 23:40 10,9 C 94 % 1010,0 hPa 0,0 mm 1,8 km/h (1 Bft) E-SE 112 0 min 0 W/m 10,0 C 10,9 C 4,3 km/h (1 Bft)
25/10/2012 23:50 11,0 C 94 % 1010,1 hPa 0,0 mm 0,4 km/h (0 Bft) SE 135 0 min 0 W/m 10,1 C 11,0 C 0,4 km/h (0 Bft)
_ Min-Heure 20:50 06:50 23:10 - 23:30 - - - - 20:50 20:50 23:30
Minimum _ 9,7 C 76 % 1009,9 hPa - 0,0 km/h (0 Bft) - - - - 8,8 C 9,7 C 0,0 km/h (0 Bft)
_ Max-Heure 06:40 21:40 03:00 20:10 23:00 - - 23:50 23:50 07:40 06:40 18:20
Maximum _ 20,4 C 95 % 1014,9 hPa 0,1 mm 2,9 km/h
E-SE (1 Bft)
- - 0 min 0 W/m 16,3 C 20,4 C 4,7 km/h
E-SE (1 Bft)
Moyenne _ 14,1 C 89 % 1012,0 hPa #0,1 mm 0,3 km/h (0 Bft) NE - #0 min. 0 W/m 12,2 C 14,1 C 0,7 km/h (0 Bft)
Saint Bonnet de Bellac- Haute Vienne - France